,,,PA_Meas_PMT16A,,PR_Meas_QMR101_102,,RH_Meas_QMH101,,SR_Meas_QMS101,,TA_Meas_QMH101,,GenWind,,GenWind,
date,time,status,PA,status,PR,status,RH,status,SR,status,TA,status,DirAvg,status,SpdAvg,
2010-07-26, 00:00:04,VALID,1004.51,VALID,0,VALID,79.9278,VALID,0.100563,VALID,26.5251,VALID,108,VALID,1.90898,
2010-07-26, 00:01:04,VALID,1004.49,VALID,0,VALID,79.8515,VALID,0,VALID,26.5446,VALID,95,VALID,0.977344,
2010-07-26, 00:02:04,VALID,1004.52,VALID,0,VALID,79.9812,VALID,0,VALID,26.5076,VALID,90,VALID,1.18398,
2010-07-26, 00:03:04,VALID,1004.53,VALID,0,VALID,80.0346,VALID,0,VALID,26.4881,VALID,87,VALID,1.67539,
2010-07-26, 00:04:04,VALID,1004.51,VALID,0,VALID,80.3092,VALID,0,VALID,26.4277,VALID,105,VALID,1.69062,
2010-07-26, 00:05:04,VALID,1004.49,VALID,0,VALID,80.4542,VALID,0,VALID,26.5096,VALID,85,VALID,0.687891,
2010-07-26, 00:06:04,VALID,1004.47,VALID,0,VALID,80.561,VALID,0,VALID,26.4687,VALID,106,VALID,1.07344,
2010-07-26, 00:07:04,VALID,1004.5,VALID,0,VALID,80.3855,VALID,0,VALID,26.5271,VALID,54,VALID,1.00156,
2010-07-26, 00:08:04,VALID,1004.47,VALID,0,VALID,80.2177,VALID,0,VALID,26.5466,VALID,72,VALID,1.09648,
2010-07-26, 00:09:04,VALID,1004.48,VALID,0,VALID,80.2558,VALID,0,VALID,26.5271,VALID,87,VALID,0.421484,
2010-07-26, 00:10:04,VALID,1004.49,VALID,0,VALID,80.416,VALID,0,VALID,26.4881,VALID,69,VALID,0.789063,
2010-07-26, 00:11:04,VALID,1004.47,VALID,0,VALID,80.5533,VALID,0,VALID,26.4492,VALID,89,VALID,1.7625,
2010-07-26, 00:12:04,VALID,1004.48,VALID,0,VALID,80.6678,VALID,0,VALID,26.4687,VALID,81,VALID,1.59609,
2010-07-26, 00:13:04,VALID,1004.47,VALID,0,VALID,80.683,VALID,0,VALID,26.4687,VALID,57,VALID,0.589453,
2010-07-26, 00:14:04,VALID,1004.46,VALID,0,VALID,80.7898,VALID,0,VALID,26.4277,VALID,85,VALID,1.36953,
2010-07-26, 00:15:04,VALID,1004.48,VALID,0,VALID,80.8585,VALID,0,VALID,26.4297,VALID,29,VALID,0.475,
2010-07-26, 00:16:04,VALID,1004.49,VALID,0,VALID,80.9348,VALID,0,VALID,26.4687,VALID,79,VALID,1.70273,
2010-07-26, 00:17:04,VALID,1004.5,VALID,0,VALID,80.8509,VALID,0,VALID,26.4881,VALID,21,VALID,1.28437,
2010-07-26, 00:18:04,VALID,1004.5,VALID,0,VALID,80.7517,VALID,0,VALID,26.5271,VALID,95,VALID,0.892578,
2010-07-26, 00:19:04,VALID,1004.47,VALID,0,VALID,80.7136,VALID,0,VALID,26.5271,VALID,59,VALID,0.911328,
2010-07-26, 00:20:04,VALID,1004.47,VALID,0,VALID,80.6754,VALID,0,VALID,26.5876,VALID,77,VALID,1.7207,
2010-07-26, 00:21:04,VALID,1004.44,VALID,0,VALID,80.5915,VALID,0,VALID,26.5855,VALID,75,VALID,1.03164,
2010-07-26, 00:22:04,VALID,1004.49,VALID,0,VALID,80.5228,VALID,0,VALID,26.605,VALID,72,VALID,1.73867,
2010-07-26, 00:23:04,VALID,1004.43,VALID,0,VALID,80.4618,VALID,0,VALID,26.6245,VALID,87,VALID,2.47461,
2010-07-26, 00:24:04,VALID,1004.43,VALID,0,VALID,80.2787,VALID,0,VALID,26.7024,VALID,94,VALID,1.52539,
2010-07-26, 00:25:04,VALID,1004.41,VALID,0,VALID,80.21,VALID,0,VALID,26.7239,VALID,83,VALID,1.07695,
2010-07-26, 00:26:04,VALID,1004.39,VALID,0,VALID,80.1566,VALID,0,VALID,26.7414,VALID,87,VALID,1.73633,
2010-07-26, 00:27:04,VALID,1004.37,VALID,0,VALID,80.0117,VALID,0,VALID,26.7414,VALID,108,VALID,1.74961,
2010-07-26, 00:28:04,VALID,1004.39,VALID,0,VALID,79.9354,VALID,0,VALID,26.7804,VALID,88,VALID,1.35117,
2010-07-26, 00:29:04,VALID,1004.35,VALID,0,VALID,79.9964,VALID,0,VALID,26.8193,VALID,81,VALID,1.19062,
2010-07-26, 00:30:04,VALID,1004.36,VALID,0,VALID,80.0651,VALID,0,VALID,26.7998,VALID,61,VALID,0.661719,
2010-07-26, 00:31:04,VALID,1004.34,VALID,0,VALID,80.1872,VALID,0,VALID,26.7609,VALID,70,VALID,0.697656,
2010-07-26, 00:32:04,VALID,1004.3,VALID,0,VALID,80.2863,VALID,0,VALID,26.7219,VALID,83,VALID,0.860547,
2010-07-26, 00:33:04,VALID,1004.26,VALID,0,VALID,80.2482,VALID,0,VALID,26.7219,VALID,98,VALID,1.15156,
2010-07-26, 00:34:04,VALID,1004.29,VALID,0,VALID,80.2787,VALID,0,VALID,26.8019,VALID,34,VALID,0.606641,
2010-07-26, 00:35:04,VALID,1004.24,VALID,0,VALID,80.0727,VALID,0,VALID,26.7804,VALID,62,VALID,1.16836,
2010-07-26, 00:36:04,VALID,1004.24,VALID,0,VALID,80.1032,VALID,0,VALID,26.7998,VALID,100,VALID,2.22813,
2010-07-26, 00:37:04,VALID,1004.19,VALID,0,VALID,80.1032,VALID,0,VALID,26.7998,VALID,66,VALID,0.911328,
2010-07-26, 00:38:04,VALID,1004.2,VALID,0,VALID,80.2711,VALID,0,VALID,26.7609,VALID,30,VALID,0.964844,
2010-07-26, 00:39:04,VALID,1004.17,VALID,0,VALID,80.5381,VALID,0,VALID,26.7024,VALID,99,VALID,1.31055,
2010-07-26, 00:40:04,VALID,1004.11,VALID,0,VALID,80.5076,VALID,0,VALID,26.7219,VALID,83,VALID,1.35508,
2010-07-26, 00:41:04,VALID,1004.12,VALID,0,VALID,80.4999,VALID,0,VALID,26.7414,VALID,67,VALID,1.05156,
2010-07-26, 00:42:04,VALID,1004.07,VALID,0,VALID,80.4313,VALID,0,VALID,26.7609,VALID,108,VALID,1.98086,
2010-07-26, 00:43:04,VALID,1004.1,VALID,0,VALID,80.3397,VALID,0,VALID,26.7589,VALID,86,VALID,0.948828,
2010-07-26, 00:44:04,VALID,1004.1,VALID,0,VALID,80.4465,VALID,0,VALID,26.7414,VALID,80,VALID,1.82383,
2010-07-26, 00:45:04,VALID,1004.08,VALID,0,VALID,80.5076,VALID,0,VALID,26.7414,VALID,78,VALID,0.925781,
2010-07-26, 00:46:04,VALID,1004.09,VALID,0,VALID,80.5686,VALID,0,VALID,26.7394,VALID,66,VALID,0.933594,
2010-07-26, 00:47:04,VALID,1004.06,VALID,0,VALID,80.5076,VALID,0,VALID,26.7609,VALID,71,VALID,1.50586,
2010-07-26, 00:48:04,VALID,1004.06,VALID,0,VALID,80.6144,VALID,0,VALID,26.7394,VALID,94,VALID,1.25352,
2010-07-26, 00:49:04,VALID,1004.08,VALID,0,VALID,80.7059,VALID,0.100563,VALID,26.7004,VALID,88,VALID,1.41992,
2010-07-26, 00:50:04,VALID,1004.06,VALID,0,VALID,80.7746,VALID,0,VALID,26.7004,VALID,87,VALID,1.41211,
2010-07-26, 00:51:04,VALID,1004.06,VALID,0,VALID,80.8814,VALID,0.100563,VALID,26.7004,VALID,118,VALID,1.53477,
2010-07-26, 00:52:04,VALID,1004.06,VALID,0,VALID,80.8966,VALID,0.100563,VALID,26.7004,VALID,98,VALID,1.10156,
2010-07-26, 00:53:04,VALID,1004.01,VALID,0,VALID,80.9806,VALID,0,VALID,26.6809,VALID,76,VALID,1.39844,
2010-07-26, 00:54:04,VALID,1004.01,VALID,0,VALID,81.0797,VALID,0.100563,VALID,26.6809,VALID,75,VALID,1.26289,
2010-07-26, 00:55:04,VALID,1003.94,VALID,0,VALID,81.0416,VALID,0,VALID,26.6809,VALID,106,VALID,2.57734,
2010-07-26, 00:56:04,VALID,1003.97,VALID,0,VALID,80.9424,VALID,0,VALID,26.7414,VALID,65,VALID,1.37227,
2010-07-26, 00:57:04,VALID,1003.91,VALID,0,VALID,80.889,VALID,0,VALID,26.7004,VALID,73,VALID,0.775391,
2010-07-26, 00:58:04,VALID,1003.92,VALID,0,VALID,80.9958,VALID,0,VALID,26.7219,VALID,73,VALID,1.05547,
2010-07-26, 00:59:04,VALID,1003.86,VALID,0,VALID,81.1408,VALID,0,VALID,26.6614,VALID,35,VALID,1.20859,
2010-07-26, 01:00:04,VALID,1003.87,VALID,0,VALID,81.1942,VALID,0.100563,VALID,26.683,VALID,104,VALID,1.10312,
2010-07-26, 01:01:04,VALID,1003.83,VALID,0,VALID,81.2018,VALID,0.100563,VALID,26.6809,VALID,66,VALID,1.63242,
2010-07-26, 01:02:04,VALID,1003.82,VALID,0,VALID,81.0492,VALID,0,VALID,26.7004,VALID,86,VALID,1.71914,
2010-07-26, 01:03:04,VALID,1003.84,VALID,0,VALID,80.9729,VALID,0,VALID,26.7199,VALID,93,VALID,2.07305,
2010-07-26, 01:04:04,VALID,1003.8,VALID,0,VALID,80.7975,VALID,0,VALID,26.7783,VALID,104,VALID,1.60742,
2010-07-26, 01:05:04,VALID,1003.83,VALID,0,VALID,80.8509,VALID,0,VALID,26.7804,VALID,63,VALID,0.501953,
2010-07-26, 01:06:04,VALID,1003.82,VALID,0,VALID,80.9424,VALID,0,VALID,26.7414,VALID,98,VALID,1.79297,
2010-07-26, 01:07:04,VALID,1003.77,VALID,0,VALID,80.8738,VALID,0,VALID,26.7804,VALID,111,VALID,1.6918,
2010-07-26, 01:08:04,VALID,1003.77,VALID,0,VALID,80.7136,VALID,0,VALID,26.7783,VALID,79,VALID,0.784375,
2010-07-26, 01:09:04,VALID,1003.77,VALID,0,VALID,80.7136,VALID,0,VALID,26.7978,VALID,101,VALID,1.65273,
2010-07-26, 01:10:04,VALID,1003.74,VALID,0,VALID,80.7822,VALID,0,VALID,26.7783,VALID,120,VALID,0.584766,
2010-07-26, 01:11:04,VALID,1003.77,VALID,0,VALID,80.7288,VALID,0,VALID,26.7783,VALID,88,VALID,1.03594,
2010-07-26, 01:12:04,VALID,1003.76,VALID,0,VALID,80.6525,VALID,0,VALID,26.8173,VALID,110,VALID,2.00898,
2010-07-26, 01:13:04,VALID,1003.76,VALID,0,VALID,80.5381,VALID,0.100563,VALID,26.8173,VALID,76,VALID,0.854297,
2010-07-26, 01:14:04,VALID,1003.69,VALID,0,VALID,80.5305,VALID,0,VALID,26.8173,VALID,75,VALID,1.31562,
2010-07-26, 01:15:04,VALID,1003.7,VALID,0,VALID,80.6449,VALID,0,VALID,26.8173,VALID,89,VALID,1.25898,
2010-07-26, 01:16:04,VALID,1003.71,VALID,0,VALID,80.5457,VALID,0.100563,VALID,26.8173,VALID,99,VALID,2.15664,
2010-07-26, 01:17:04,VALID,1003.69,VALID,0,VALID,80.4771,VALID,0,VALID,26.8368,VALID,99,VALID,1.73945,
2010-07-26, 01:18:04,VALID,1003.67,VALID,0,VALID,80.1795,VALID,0,VALID,26.8973,VALID,91,VALID,2.5543,
2010-07-26, 01:19:04,VALID,1003.68,VALID,0,VALID,80.149,VALID,0,VALID,26.8757,VALID,82,VALID,0.966406,
2010-07-26, 01:20:04,VALID,1003.71,VALID,0,VALID,80.1948,VALID,0,VALID,26.8368,VALID,80,VALID,1.49609,
2010-07-26, 01:21:04,VALID,1003.73,VALID,0,VALID,80.3931,VALID,0,VALID,26.8193,VALID,97,VALID,1.13164,
2010-07-26, 01:22:04,VALID,1003.72,VALID,0,VALID,80.5839,VALID,0,VALID,26.7783,VALID,101,VALID,1.25156,
2010-07-26, 01:23:04,VALID,1003.73,VALID,0,VALID,80.7593,VALID,0,VALID,26.7609,VALID,46,VALID,0.964453,
2010-07-26, 01:24:04,VALID,1003.74,VALID,0,VALID,80.9424,VALID,0,VALID,26.7004,VALID,81,VALID,0.815625,
2010-07-26, 01:25:04,VALID,1003.76,VALID,0,VALID,81.1179,VALID,0,VALID,26.6635,VALID,98,VALID,0.858984,
2010-07-26, 01:26:04,VALID,1003.72,VALID,0,VALID,81.2934,VALID,0.100563,VALID,26.601,VALID,80,VALID,1.17773,
2010-07-26, 01:27:04,VALID,1003.71,VALID,0,VALID,81.4307,VALID,0,VALID,26.603,VALID,78,VALID,1.85703,
2010-07-26, 01:28:04,VALID,1003.72,VALID,0,VALID,81.4917,VALID,0,VALID,26.5835,VALID,117,VALID,1.01719,
2010-07-26, 01:29:04,VALID,1003.71,VALID,0,VALID,81.5832,VALID,0,VALID,26.5641,VALID,60,VALID,0.578516,
2010-07-26, 01:30:04,VALID,1003.69,VALID,0,VALID,81.7206,VALID,0,VALID,26.5446,VALID,99,VALID,1.13906,
2010-07-26, 01:31:04,VALID,1003.67,VALID,0,VALID,81.7358,VALID,0,VALID,26.5271,VALID,71,VALID,1.32578,
2010-07-26, 01:32:04,VALID,1003.69,VALID,0,VALID,81.7282,VALID,0,VALID,26.5466,VALID,87,VALID,1.31523,
2010-07-26, 01:33:04,VALID,1003.62,VALID,0,VALID,81.423,VALID,0,VALID,26.6245,VALID,62,VALID,1.33086,
2010-07-26, 01:34:04,VALID,1003.63,VALID,0,VALID,81.1179,VALID,0,VALID,26.683,VALID,76,VALID,2.21953,
2010-07-26, 01:35:04,VALID,1003.58,VALID,0,VALID,80.9348,VALID,0,VALID,26.7219,VALID,93,VALID,1.22383,
2010-07-26, 01:36:04,VALID,1003.59,VALID,0,VALID,80.6678,VALID,0,VALID,26.7804,VALID,22,VALID,0.562891,
2010-07-26, 01:37:04,VALID,1003.55,VALID,0,VALID,80.6983,VALID,0,VALID,26.7609,VALID,87,VALID,1.20586,
2010-07-26, 01:38:04,VALID,1003.54,VALID,0,VALID,80.8661,VALID,0,VALID,26.7609,VALID,80,VALID,1.66836,
2010-07-26, 01:39:04,VALID,1003.55,VALID,0,VALID,80.9043,VALID,0,VALID,26.7609,VALID,65,VALID,1.30664,
2010-07-26, 01:40:04,VALID,1003.58,VALID,0,VALID,80.9729,VALID,0,VALID,26.7824,VALID,81,VALID,0.988672,
2010-07-26, 01:41:04,VALID,1003.61,VALID,0,VALID,81.156,VALID,0,VALID,26.7239,VALID,74,VALID,1.0625,
2010-07-26, 01:42:04,VALID,1003.57,VALID,0,VALID,81.2476,VALID,0,VALID,26.7219,VALID,108,VALID,1.13086,
2010-07-26, 01:43:04,VALID,1003.58,VALID,0,VALID,81.3467,VALID,0,VALID,26.683,VALID,102,VALID,1.01211,
2010-07-26, 01:44:04,VALID,1003.6,VALID,0,VALID,81.4993,VALID,0,VALID,26.6635,VALID,85,VALID,1.37109,
2010-07-26, 01:45:04,VALID,1003.61,VALID,0,VALID,81.6138,VALID,0,VALID,26.644,VALID,94,VALID,1.50391,
2010-07-26, 01:46:04,VALID,1003.65,VALID,0,VALID,81.6672,VALID,0,VALID,26.642,VALID,89,VALID,1.16367,
2010-07-26, 01:47:04,VALID,1003.64,VALID,0,VALID,81.7282,VALID,0,VALID,26.603,VALID,77,VALID,0.992578,
2010-07-26, 01:48:04,VALID,1003.64,VALID,0,VALID,81.9189,VALID,0,VALID,26.5855,VALID,73,VALID,1.19023,
2010-07-26, 01:49:04,VALID,1003.66,VALID,0,VALID,82.0715,VALID,0,VALID,26.5231,VALID,97,VALID,1.01992,
2010-07-26, 01:50:04,VALID,1003.69,VALID,0,VALID,82.1783,VALID,0,VALID,26.5056,VALID,76,VALID,0.589453,
2010-07-26, 01:51:04,VALID,1003.67,VALID,0,VALID,82.3385,VALID,0,VALID,26.5466,VALID,115,VALID,1.3207,
2010-07-26, 01:52:04,VALID,1003.7,VALID,0,VALID,82.2012,VALID,0,VALID,26.5855,VALID,106,VALID,1.9875,
2010-07-26, 01:53:04,VALID,1003.69,VALID,0,VALID,82.0181,VALID,0,VALID,26.603,VALID,35,VALID,0.868359,
2010-07-26, 01:54:04,VALID,1003.71,VALID,0,VALID,81.9952,VALID,0,VALID,26.605,VALID,101,VALID,0.557813,
2010-07-26, 01:55:04,VALID,1003.72,VALID,0,VALID,82.1325,VALID,0,VALID,26.5835,VALID,106,VALID,1.09336,
2010-07-26, 01:56:04,VALID,1003.73,VALID,0,VALID,82.2317,VALID,0,VALID,26.5661,VALID,95,VALID,1.19492,
2010-07-26, 01:57:04,VALID,1003.7,VALID,0,VALID,82.1325,VALID,0,VALID,26.5855,VALID,97,VALID,1.87344,
2010-07-26, 01:58:04,VALID,1003.72,VALID,0,VALID,81.9723,VALID,0,VALID,26.6225,VALID,100,VALID,1.92695,
2010-07-26, 01:59:04,VALID,1003.73,VALID,0,VALID,81.5298,VALID,0,VALID,26.7004,VALID,80,VALID,2.15078,
2010-07-26, 02:00:04,VALID,1003.75,VALID,0,VALID,81.2781,VALID,0,VALID,26.7609,VALID,89,VALID,1.37461,
2010-07-26, 02:01:04,VALID,1003.73,VALID,0,VALID,81.2399,VALID,0,VALID,26.7394,VALID,85,VALID,1.1332,
2010-07-26, 02:02:04,VALID,1003.78,VALID,0,VALID,81.4307,VALID,0.100563,VALID,26.6809,VALID,90,VALID,0.728516,
2010-07-26, 02:03:04,VALID,1003.79,VALID,0,VALID,81.568,VALID,0,VALID,26.683,VALID,81,VALID,0.895703,
2010-07-26, 02:04:04,VALID,1003.82,VALID,0,VALID,81.7129,VALID,0,VALID,26.644,VALID,33,VALID,0.611719,
2010-07-26, 02:05:04,VALID,1003.86,VALID,0,VALID,81.8274,VALID,0,VALID,26.5835,VALID,107,VALID,1.64063,
2010-07-26, 02:06:04,VALID,1003.86,VALID,0,VALID,81.5375,VALID,0,VALID,26.6635,VALID,106,VALID,1.73125,
2010-07-26, 02:07:04,VALID,1003.84,VALID,0,VALID,81.2171,VALID,0,VALID,26.7219,VALID,112,VALID,1.85078,
2010-07-26, 02:08:04,VALID,1003.85,VALID,0,VALID,80.9729,VALID,0,VALID,26.7609,VALID,101,VALID,1.53281,
2010-07-26, 02:09:04,VALID,1003.79,VALID,0,VALID,80.8204,VALID,0,VALID,26.7804,VALID,101,VALID,1.49805,
2010-07-26, 02:10:04,VALID,1003.82,VALID,0,VALID,80.8204,VALID,0.100563,VALID,26.7589,VALID,91,VALID,1.36016,
2010-07-26, 02:11:04,VALID,1003.85,VALID,0,VALID,80.7593,VALID,0,VALID,26.7589,VALID,92,VALID,1.6543,
2010-07-26, 02:12:04,VALID,1003.81,VALID,0,VALID,80.8204,VALID,0,VALID,26.7394,VALID,106,VALID,1.42539,
2010-07-26, 02:13:04,VALID,1003.81,VALID,0,VALID,81.0187,VALID,0,VALID,26.7004,VALID,99,VALID,0.602344,
2010-07-26, 02:14:04,VALID,1003.81,VALID,0,VALID,81.0874,VALID,0,VALID,26.6614,VALID,103,VALID,1.27461,
2010-07-26, 02:15:04,VALID,1003.81,VALID,0,VALID,81.1179,VALID,0.100563,VALID,26.642,VALID,61,VALID,1.3207,
2010-07-26, 02:16:04,VALID,1003.76,VALID,0,VALID,81.1942,VALID,0.100563,VALID,26.644,VALID,69,VALID,1.33242,
2010-07-26, 02:17:04,VALID,1003.79,VALID,0,VALID,81.1713,VALID,0,VALID,26.6225,VALID,95,VALID,1.22187,
2010-07-26, 02:18:04,VALID,1003.76,VALID,0,VALID,81.1331,VALID,0,VALID,26.6245,VALID,65,VALID,2.19766,
2010-07-26, 02:19:04,VALID,1003.75,VALID,0,VALID,81.2094,VALID,0,VALID,26.644,VALID,123,VALID,1.92031,
2010-07-26, 02:20:04,VALID,1003.78,VALID,0,VALID,81.1484,VALID,0,VALID,26.603,VALID,78,VALID,2.13594,
2010-07-26, 02:21:04,VALID,1003.78,VALID,0,VALID,81.3849,VALID,0.100563,VALID,26.5835,VALID,79,VALID,0.771094,
2010-07-26, 02:22:04,VALID,1003.76,VALID,0,VALID,81.5909,VALID,0,VALID,26.5251,VALID,105,VALID,1.11836,
2010-07-26, 02:23:04,VALID,1003.79,VALID,0,VALID,81.7053,VALID,0.100563,VALID,26.4861,VALID,93,VALID,1.66914,
2010-07-26, 02:24:04,VALID,1003.78,VALID,0,VALID,81.7435,VALID,0,VALID,26.5271,VALID,102,VALID,0.617578,
2010-07-26, 02:25:04,VALID,1003.75,VALID,0,VALID,81.6443,VALID,0.100563,VALID,26.5056,VALID,88,VALID,2.25977,
2010-07-26, 02:26:04,VALID,1003.75,VALID,0,VALID,81.568,VALID,0,VALID,26.5661,VALID,84,VALID,1.09453,
2010-07-26, 02:27:04,VALID,1003.74,VALID,0,VALID,81.4993,VALID,0,VALID,26.5661,VALID,87,VALID,0.567969,
2010-07-26, 02:28:04,VALID,1003.77,VALID,0,VALID,81.629,VALID,0.100563,VALID,26.5056,VALID,104,VALID,0.970312,
2010-07-26, 02:29:04,VALID,1003.77,VALID,0,VALID,81.1637,VALID,0.100563,VALID,26.603,VALID,108,VALID,1.57422,
2010-07-26, 02:30:04,VALID,1003.78,VALID,0,VALID,80.9501,VALID,0,VALID,26.6614,VALID,51,VALID,1.59063,
2010-07-26, 02:31:04,VALID,1003.76,VALID,0,VALID,80.6449,VALID,0.100563,VALID,26.7004,VALID,119,VALID,1.25625,
2010-07-26, 02:32:04,VALID,1003.75,VALID,0,VALID,80.4694,VALID,0.100563,VALID,26.7609,VALID,104,VALID,1.53008,
2010-07-26, 02:33:04,VALID,1003.77,VALID,0,VALID,80.2406,VALID,0,VALID,26.7589,VALID,125,VALID,1.04805,
2010-07-26, 02:34:04,VALID,1003.77,VALID,0,VALID,80.1032,VALID,0,VALID,26.7783,VALID,76,VALID,1.28477,
2010-07-26, 02:35:04,VALID,1003.75,VALID,0,VALID,80.1338,VALID,0.100563,VALID,26.7783,VALID,66,VALID,0.645703,
2010-07-26, 02:36:04,VALID,1003.73,VALID,0,VALID,80.2406,VALID,0,VALID,26.7589,VALID,94,VALID,1.57969,
2010-07-26, 02:37:04,VALID,1003.74,VALID,0,VALID,80.3626,VALID,0,VALID,26.7199,VALID,71,VALID,1.39219,
2010-07-26, 02:38:04,VALID,1003.72,VALID,0,VALID,80.3931,VALID,0,VALID,26.7609,VALID,139,VALID,0.895703,
2010-07-26, 02:39:04,VALID,1003.72,VALID,0,VALID,80.3169,VALID,0,VALID,26.7394,VALID,99,VALID,3.0125,
2010-07-26, 02:40:04,VALID,1003.74,VALID,0,VALID,80.2787,VALID,0,VALID,26.7589,VALID,76,VALID,0.893359,
2010-07-26, 02:41:04,VALID,1003.74,VALID,0,VALID,80.355,VALID,0,VALID,26.7414,VALID,56,VALID,0.931641,
2010-07-26, 02:42:04,VALID,1003.75,VALID,0,VALID,80.5686,VALID,0.100563,VALID,26.7004,VALID,103,VALID,1.65625,
2010-07-26, 02:43:04,VALID,1003.77,VALID,0,VALID,80.5305,VALID,0,VALID,26.7024,VALID,99,VALID,0.927734,
2010-07-26, 02:44:04,VALID,1003.75,VALID,0,VALID,80.6296,VALID,0,VALID,26.7024,VALID,96,VALID,1.44375,
2010-07-26, 02:45:04,VALID,1003.76,VALID,0,VALID,80.5915,VALID,0,VALID,26.7024,VALID,86,VALID,0.884375,
2010-07-26, 02:46:04,VALID,1003.75,VALID,0,VALID,80.7822,VALID,0,VALID,26.6635,VALID,102,VALID,0.730078,
2010-07-26, 02:47:04,VALID,1003.78,VALID,0,VALID,81.0187,VALID,0,VALID,26.605,VALID,129,VALID,1.01172,
2010-07-26, 02:48:04,VALID,1003.78,VALID,0,VALID,81.2552,VALID,0.100563,VALID,26.5466,VALID,107,VALID,1.02422,
2010-07-26, 02:49:04,VALID,1003.81,VALID,0,VALID,81.5146,VALID,0,VALID,26.4667,VALID,96,VALID,1.34844,
2010-07-26, 02:50:04,VALID,1003.77,VALID,0,VALID,81.5146,VALID,0,VALID,26.5056,VALID,87,VALID,1.33672,
2010-07-26, 02:51:04,VALID,1003.78,VALID,0,VALID,81.3086,VALID,0,VALID,26.5641,VALID,102,VALID,1.62891,
2010-07-26, 02:52:04,VALID,1003.77,VALID,0,VALID,81.1255,VALID,0,VALID,26.6245,VALID,98,VALID,2.11211,
2010-07-26, 02:53:04,VALID,1003.79,VALID,0,VALID,80.8509,VALID,0,VALID,26.6635,VALID,103,VALID,1.06055,
2010-07-26, 02:54:04,VALID,1003.8,VALID,0,VALID,80.8661,VALID,0,VALID,26.642,VALID,104,VALID,1.22109,
2010-07-26, 02:55:04,VALID,1003.81,VALID,0,VALID,80.9729,VALID,0,VALID,26.5835,VALID,101,VALID,1.11953,
2010-07-26, 02:56:04,VALID,1003.83,VALID,0,VALID,80.9958,VALID,0,VALID,26.5641,VALID,91,VALID,2.12734,
2010-07-26, 02:57:04,VALID,1003.81,VALID,0,VALID,81.1179,VALID,0,VALID,26.5855,VALID,76,VALID,0.450391,
2010-07-26, 02:58:04,VALID,1003.8,VALID,0,VALID,81.1942,VALID,0,VALID,26.5466,VALID,83,VALID,1.07305,
2010-07-26, 02:59:04,VALID,1003.78,VALID,0,VALID,81.3315,VALID,0.100563,VALID,26.5056,VALID,79,VALID,0.676172,
2010-07-26, 03:00:04,VALID,1003.79,VALID,0,VALID,81.5298,VALID,0,VALID,26.4472,VALID,79,VALID,1.01367,
2010-07-26, 03:01:04,VALID,1003.8,VALID,0,VALID,81.507,VALID,0,VALID,26.4667,VALID,81,VALID,1.70977,
2010-07-26, 03:02:04,VALID,1003.77,VALID,0,VALID,81.4459,VALID,0,VALID,26.5076,VALID,93,VALID,0.721094,
2010-07-26, 03:03:04,VALID,1003.75,VALID,0,VALID,81.5146,VALID,0,VALID,26.4881,VALID,87,VALID,1.03086,
2010-07-26, 03:04:04,VALID,1003.76,VALID,0,VALID,81.6367,VALID,0,VALID,26.4277,VALID,77,VALID,0.946875,
2010-07-26, 03:05:04,VALID,1003.74,VALID,0,VALID,81.6061,VALID,0,VALID,26.4687,VALID,81,VALID,1.67344,
2010-07-26, 03:06:04,VALID,1003.75,VALID,0,VALID,81.629,VALID,0,VALID,26.4472,VALID,82,VALID,0.6,
2010-07-26, 03:07:04,VALID,1003.69,VALID,0,VALID,81.7358,VALID,0,VALID,26.4102,VALID,36,VALID,0.322656,
2010-07-26, 03:08:04,VALID,1003.74,VALID,0,VALID,82.0105,VALID,0,VALID,26.3713,VALID,119,VALID,0.619531,
2010-07-26, 03:09:04,VALID,1003.73,VALID,0,VALID,82.247,VALID,0,VALID,26.3323,VALID,118,VALID,1.74883,
2010-07-26, 03:10:04,VALID,1003.72,VALID,0,VALID,82.041,VALID,0,VALID,26.3907,VALID,46,VALID,0.450391,
2010-07-26, 03:11:04,VALID,1003.74,VALID,0,VALID,81.8426,VALID,0,VALID,26.4492,VALID,63,VALID,0.928125,
2010-07-26, 03:12:04,VALID,1003.74,VALID,0,VALID,81.7435,VALID,0,VALID,26.4492,VALID,107,VALID,0.916797,
2010-07-26, 03:13:04,VALID,1003.78,VALID,0,VALID,81.6824,VALID,0,VALID,26.4492,VALID,79,VALID,1.26211,
2010-07-26, 03:14:04,VALID,1003.81,VALID,0,VALID,81.7206,VALID,0,VALID,26.4297,VALID,45,VALID,0.61875,
2010-07-26, 03:15:04,VALID,1003.8,VALID,0,VALID,81.8884,VALID,0,VALID,26.3693,VALID,85,VALID,0.994141,
2010-07-26, 03:16:04,VALID,1003.85,VALID,0,VALID,81.9952,VALID,0,VALID,26.4102,VALID,30,VALID,0.580469,
2010-07-26, 03:17:04,VALID,1003.81,VALID,0,VALID,82.0486,VALID,0,VALID,26.3713,VALID,82,VALID,0.860156,
2010-07-26, 03:18:04,VALID,1003.82,VALID,0,VALID,81.7587,VALID,0.100563,VALID,26.4492,VALID,112,VALID,1.05508,
2010-07-26, 03:19:04,VALID,1003.8,VALID,0,VALID,81.4688,VALID,0,VALID,26.5056,VALID,103,VALID,1.41445,
2010-07-26, 03:20:04,VALID,1003.79,VALID,0,VALID,81.3544,VALID,0,VALID,26.5446,VALID,93,VALID,0.923437,
2010-07-26, 03:21:04,VALID,1003.76,VALID,0,VALID,81.3162,VALID,0,VALID,26.5056,VALID,89,VALID,0.58125,
2010-07-26, 03:22:04,VALID,1003.81,VALID,0,VALID,81.4002,VALID,0,VALID,26.5076,VALID,63,VALID,0.326953,
2010-07-26, 03:23:04,VALID,1003.82,VALID,0,VALID,81.4993,VALID,0,VALID,26.4472,VALID,82,VALID,0.447656,
2010-07-26, 03:24:04,VALID,1003.84,VALID,0,VALID,81.7129,VALID,0,VALID,26.4687,VALID,122,VALID,1.09727,
2010-07-26, 03:25:04,VALID,1003.83,VALID,0,VALID,81.6061,VALID,0.100563,VALID,26.5076,VALID,76,VALID,1.2293,
2010-07-26, 03:26:04,VALID,1003.82,VALID,0,VALID,81.5604,VALID,0,VALID,26.5271,VALID,75,VALID,0.494531,
2010-07-26, 03:27:04,VALID,1003.8,VALID,0,VALID,81.568,VALID,0,VALID,26.5076,VALID,29,VALID,0.797656,
2010-07-26, 03:28:04,VALID,1003.8,VALID,0,VALID,81.5451,VALID,0,VALID,26.4881,VALID,70,VALID,1.1457,
2010-07-26, 03:29:04,VALID,1003.8,VALID,0,VALID,81.4917,VALID,0,VALID,26.5076,VALID,99,VALID,1.28594,
2010-07-26, 03:30:04,VALID,1003.75,VALID,0,VALID,81.362,VALID,0,VALID,26.5271,VALID,77,VALID,0.455469,
2010-07-26, 03:31:04,VALID,1003.78,VALID,0,VALID,81.5375,VALID,0,VALID,26.5271,VALID,114,VALID,0.321875,
2010-07-26, 03:32:04,VALID,1003.76,VALID,0,VALID,81.4764,VALID,0,VALID,26.5056,VALID,70,VALID,1.59961,
2010-07-26, 03:33:04,VALID,1003.78,VALID,0,VALID,81.5451,VALID,0,VALID,26.5056,VALID,95,VALID,0.815234,
2010-07-26, 03:34:04,VALID,1003.77,VALID,0,VALID,81.4688,VALID,0,VALID,26.5056,VALID,101,VALID,1.37773,
2010-07-26, 03:35:04,VALID,1003.78,VALID,0,VALID,81.3391,VALID,0,VALID,26.5661,VALID,73,VALID,1.60859,
2010-07-26, 03:36:04,VALID,1003.8,VALID,0,VALID,81.2476,VALID,0,VALID,26.5855,VALID,83,VALID,1.15781,
2010-07-26, 03:37:04,VALID,1003.79,VALID,0,VALID,81.2628,VALID,0,VALID,26.5641,VALID,41,VALID,0.778516,
2010-07-26, 03:38:04,VALID,1003.8,VALID,0,VALID,81.423,VALID,0,VALID,26.5466,VALID,87,VALID,0.387109,
2010-07-26, 03:39:04,VALID,1003.8,VALID,0,VALID,81.5909,VALID,0,VALID,26.5076,VALID,107,VALID,1.00391,
2010-07-26, 03:40:04,VALID,1003.78,VALID,0,VALID,81.7663,VALID,0,VALID,26.4881,VALID,340,VALID,0.392578,
2010-07-26, 03:41:04,VALID,1003.78,VALID,0,VALID,81.8884,VALID,0,VALID,26.4472,VALID,59,VALID,0.740625,
2010-07-26, 03:42:04,VALID,1003.78,VALID,0,VALID,81.9189,VALID,0.100563,VALID,26.5076,VALID,39,VALID,0.995703,
2010-07-26, 03:43:04,VALID,1003.82,VALID,0,VALID,81.8045,VALID,0,VALID,26.5076,VALID,62,VALID,0.953516,
2010-07-26, 03:44:04,VALID,1003.79,VALID,0,VALID,81.896,VALID,0,VALID,26.4667,VALID,95,VALID,0.545703,
2010-07-26, 03:45:04,VALID,1003.78,VALID,0,VALID,81.9876,VALID,0,VALID,26.4297,VALID,11,VALID,0.627734,